TimeCDT,TemperatureF,Dew PointF,Humidity,Sea Level PressureIn,VisibilityMPH,Wind Direction,Wind SpeedMPH,Gust SpeedMPH,PrecipitationIn,Events,Conditions,WindDirDegrees,DateUTC
12:56 AM,63.0,60.1,90,30.01,10.0,ENE,4.6,-,N/A,,Scattered Clouds,70,2013-04-03 05:56:00
1:56 AM,64.9,63.0,93,29.99,10.0,East,5.8,-,N/A,,Mostly Cloudy,90,2013-04-03 06:56:00
2:56 AM,64.9,61.0,87,29.97,10.0,ESE,4.6,-,N/A,,Mostly Cloudy,110,2013-04-03 07:56:00
3:56 AM,64.9,61.0,87,29.95,10.0,ENE,6.9,-,N/A,,Partly Cloudy,70,2013-04-03 08:56:00
4:56 AM,64.0,60.1,87,29.95,10.0,ENE,8.1,-,N/A,,Clear,60,2013-04-03 09:56:00
5:56 AM,64.9,57.9,78,29.97,10.0,East,6.9,-,0.00,Rain,Light Rain,80,2013-04-03 10:56:00
6:56 AM,62.1,59.0,90,30.01,5.0,NNW,5.8,-,0.01,Rain,Rain,340,2013-04-03 11:56:00
7:56 AM,60.1,57.9,93,30.04,3.0,North,8.1,-,0.08,Rain,Rain,10,2013-04-03 12:56:00
8:28 AM,59.0,57.2,94,30.04,2.0,North,8.1,-,0.09,Rain,Heavy Rain,10,2013-04-03 13:28:00
8:56 AM,57.9,57.0,97,30.03,2.0,NE,11.5,-,0.16,Rain,Rain,40,2013-04-03 13:56:00
9:56 AM,57.0,55.0,93,30.01,2.5,NE,12.7,-,0.10,Rain,Rain,50,2013-04-03 14:56:00
10:23 AM,57.2,55.4,94,30.00,2.5,NE,13.8,-,N/A,Rain-Thunderstorm,Thunderstorms and Rain,50,2013-04-03 15:23:00
10:56 AM,57.0,55.0,93,30.04,3.0,NNE,8.1,-,0.18,Rain-Thunderstorm,Thunderstorms and Rain,30,2013-04-03 15:56:00
11:14 AM,57.2,55.4,94,30.04,3.0,NNE,12.7,-,0.01,Rain,Rain,30,2013-04-03 16:14:00
11:29 AM,57.2,55.4,94,30.06,3.0,NNE,9.2,17.3,0.04,Rain-Thunderstorm,Heavy Thunderstorms and Rain,30,2013-04-03 16:29:00
11:45 AM,55.4,55.4,100,30.04,2.0,NNE,12.7,-,0.07,Rain-Thunderstorm,Heavy Thunderstorms and Rain,30,2013-04-03 16:45:00
11:56 AM,55.9,55.0,97,30.06,2.0,NE,12.7,-,0.09,Rain-Thunderstorm,Thunderstorms and Rain,40,2013-04-03 16:56:00
12:19 PM,55.4,55.4,100,30.08,2.0,North,4.6,-,0.06,Rain,Heavy Rain,10,2013-04-03 17:19:00
12:35 PM,55.4,55.4,100,30.05,1.0,NNE,11.5,-,0.15,Rain,Heavy Rain,30,2013-04-03 17:35:00
12:42 PM,55.4,55.4,100,30.04,1.0,NNE,12.7,-,0.18,Rain-Thunderstorm,Heavy Thunderstorms and Rain,30,2013-04-03 17:42:00
12:56 PM,55.9,55.0,97,30.04,1.5,NNE,10.4,-,0.21,Rain-Thunderstorm,Heavy Thunderstorms and Rain,20,2013-04-03 17:56:00
1:15 PM,55.4,55.4,100,30.04,2.0,North,8.1,-,0.06,Rain-Thunderstorm,Heavy Thunderstorms and Rain,10,2013-04-03 18:15:00
1:24 PM,55.4,55.4,100,30.04,1.0,North,9.2,-,0.09,Rain-Thunderstorm,Heavy Thunderstorms and Rain,10,2013-04-03 18:24:00
1:44 PM,55.4,53.6,94,30.03,2.0,North,8.1,-,0.14,Rain,Heavy Rain,10,2013-04-03 18:44:00
1:56 PM,55.0,54.0,96,30.04,2.0,North,6.9,-,0.16,Rain,Heavy Rain,360,2013-04-03 18:56:00
2:27 PM,55.4,53.6,94,29.91,3.0,East,18.4,29.9,N/A,Rain,Rain,80,2013-04-03 19:27:00
2:36 PM,55.4,55.4,100,29.90,3.0,East,19.6,28.8,N/A,Rain,Light Rain,90,2013-04-03 19:36:00
2:56 PM,57.0,57.0,100,29.83,3.0,East,24.2,35.7,0.25,Rain,Light Rain,80,2013-04-03 19:56:00
3:14 PM,60.8,59.0,94,29.81,10.0,East,26.5,35.7,0.00,,Overcast,90,2013-04-03 20:14:00
3:56 PM,61.0,59.0,93,29.80,7.0,East,27.6,34.5,0.00,,Overcast,80,2013-04-03 20:56:00
4:46 PM,62.6,59.0,88,29.80,10.0,ENE,16.1,25.3,N/A,,Overcast,70,2013-04-03 21:46:00
4:56 PM,62.1,59.0,90,29.82,10.0,ENE,12.7,21.9,N/A,,Overcast,60,2013-04-03 21:56:00
5:13 PM,62.6,59.0,88,29.81,10.0,ENE,11.5,21.9,N/A,,Overcast,60,2013-04-03 22:13:00
5:56 PM,63.0,59.0,87,29.85,10.0,NE,10.4,-,N/A,,Overcast,40,2013-04-03 22:56:00
6:39 PM,62.6,57.2,82,29.87,10.0,North,5.8,-,N/A,,Overcast,360,2013-04-03 23:39:00
6:56 PM,62.1,57.9,86,29.88,10.0,North,8.1,-,N/A,,Overcast,10,2013-04-03 23:56:00
7:49 PM,60.8,57.2,88,29.92,10.0,North,5.8,-,N/A,,Overcast,360,2013-04-04 00:49:00
7:56 PM,61.0,57.0,87,29.94,10.0,North,9.2,-,N/A,,Overcast,360,2013-04-04 00:56:00
8:11 PM,60.8,57.2,88,29.94,10.0,North,9.2,-,N/A,,Overcast,10,2013-04-04 01:11:00
8:56 PM,61.0,57.0,87,29.94,10.0,NNE,10.4,-,N/A,,Overcast,20,2013-04-04 01:56:00
9:56 PM,61.0,57.0,87,29.94,10.0,NE,13.8,-,N/A,,Overcast,40,2013-04-04 02:56:00
10:56 PM,61.0,57.0,87,29.96,10.0,NNE,9.2,-,N/A,,Overcast,20,2013-04-04 03:56:00
11:56 PM,61.0,57.0,87,29.96,10.0,North,6.9,-,N/A,,Overcast,10,2013-04-04 04:56:00